Theta_e
327 320 322 326 323 323 328 326 325 325 325 325 325 325 327 328 330 335 344 344 340 341 349 344 340 336 338 343 345 347 347 348 348 347 346 345 339 336 332 332 327 323 321 320 318 315 311 310 310
325 322 323 325 327 325 328 325 323 324 324 324 326 327 326 327 328 332 330 344 337 343 349 346 340 337 334 343 343 346 347 348 348 347 345 338 334 329 327 324 322 319 316 314 312 312 312 313 314
326 322 323 326 332 327 325 323 323 324 323 325 327 328 326 332 336 338 342 342 338 345 347 347 338 338 333 336 343 344 346 347 345 342 335 330 328 324 322 320 318 315 314 313 313 315 316 317 317
326 325 323 324 328 328 321 323 324 324 324 324 328 330 329 331 334 340 342 341 338 344 346 350 337 339 336 332 336 341 343 342 336 328 325 324 324 321 320 318 315 314 314 315 316 318 320 321 322
326 326 327 327 326 323 321 321 321 323 323 323 329 331 333 330 334 342 343 341 338 342 343 352 338 337 338 335 332 333 333 333 326 322 323 322 321 320 319 316 315 315 316 317 318 320 322 323 324
327 326 328 330 328 323 322 321 324 324 324 324 329 330 333 329 333 341 341 341 338 340 342 350 340 335 337 337 334 331 329 326 324 321 321 320 320 320 318 316 315 315 317 318 318 319 321 324 325
326 327 328 327 328 327 326 325 326 325 327 326 329 331 332 329 332 339 341 338 336 339 342 348 348 341 337 337 336 333 331 327 324 322 321 322 322 321 319 316 315 315 318 318 317 318 319 322 325
324 326 328 328 328 328 326 325 326 328 327 328 327 330 331 327 331 337 341 337 336 339 341 345 347 346 347 346 338 335 333 329 327 325 323 323 325 324 322 318 317 317 319 319 317 318 318 321 323
322 326 328 326 327 327 325 326 327 327 328 327 327 327 327 324 325 330 339 339 335 337 339 342 342 343 344 343 345 337 335 333 330 329 327 327 337 337 338 329 331 318 319 321 320 319 319 321 322
322 324 324 325 325 326 326 325 325 325 326 327 327 327 325 323 324 326 332 340 335 335 337 339 341 342 342 341 343 346 345 344 343 342 343 341 339 340 338 338 332 328 319 322 323 324 325 328 329
320 323 322 322 323 325 325 325 326 324 325 325 326 324 323 323 323 324 327 333 338 334 335 338 342 343 343 340 341 344 342 343 344 344 345 345 342 342 342 339 341 337 332 333 333 333 333 332 331
317 319 320 320 321 322 324 323 324 325 324 321 321 322 322 323 323 324 325 328 335 337 333 336 341 346 346 342 342 342 341 342 343 345 348 347 346 344 342 338 337 338 335 335 333 333 334 334 333
314 316 316 317 318 319 320 321 321 322 321 318 319 320 320 321 322 322 323 327 332 336 338 335 337 343 345 346 341 341 342 342 342 344 347 346 344 342 341 339 337 335 334 333 333 333 333 334 334
314 314 315 315 316 316 316 317 317 318 317 316 320 319 319 320 320 320 323 327 335 335 333 336 338 340 343 343 342 340 341 340 343 342 342 346 343 341 340 340 338 334 332 331 331 332 333 334 334
313 314 314 314 314 315 315 315 316 317 316 317 324 319 319 319 318 319 320 323 324 326 324 332 337 339 342 341 342 340 338 340 338 338 341 343 344 341 340 336 335 332 332 335 334 334 335 335 334
313 313 313 314 313 314 314 316 317 315 316 317 318 322 323 318 318 318 318 320 321 322 321 321 334 339 342 342 342 339 337 337 336 338 336 337 340 340 340 333 332 332 333 334 334 335 337 337 338
315 313 313 314 314 314 314 314 316 315 315 315 314 317 318 316 317 318 317 317 319 320 322 322 321 335 342 344 343 340 338 338 335 335 330 330 336 337 334 332 332 324 332 335 336 338 339 339 341
315 314 313 313 314 314 314 315 315 315 314 314 314 315 316 316 317 316 317 317 317 319 321 323 324 329 335 341 345 343 340 338 336 334 334 336 337 336 335 333 324 325 330 336 336 338 339 342 343
313 313 313 314 313 314 314 315 315 315 315 314 314 313 315 315 315 315 315 316 317 320 322 321 324 322 322 337 339 343 341 343 341 338 335 337 337 337 336 333 327 329 332 331 332 333 342 344 344
312 313 314 314 313 314 314 314 314 315 315 315 315 315 314 315 315 314 315 317 319 320 322 322 323 324 324 329 333 334 338 342 345 342 337 336 337 337 336 329 335 335 335 338 339 342 344 345 345
313 313 313 313 314 313 313 314 315 313 313 313 314 315 314 314 313 314 317 319 318 318 319 319 322 323 325 326 326 328 332 333 343 346 344 341 340 339 333 331 338 337 340 341 342 345 346 345 345
313 313 312 313 313 314 314 314 314 313 313 313 314 314 314 313 314 316 317 317 317 317 317 319 321 323 323 326 325 327 334 341 340 342 344 345 344 342 339 341 339 342 340 340 345 347 347 347 346
313 313 313 313 314 314 313 313 314 313 313 313 314 313 314 314 318 316 316 316 317 317 318 319 321 322 324 326 327 327 328 329 332 337 343 348 348 346 343 342 343 343 343 343 345 348 348 346 346
313 313 313 314 314 313 312 312 312 313 313 313 313 312 313 316 317 317 316 316 317 318 319 320 321 322 323 324 325 327 328 329 330 331 338 344 349 349 348 344 346 344 343 346 349 349 348 346 345
313 314 316 315 314 314 313 312 312 313 311 311 312 312 315 317 317 317 317 317 318 318 320 321 322 323 323 323 324 325 327 329 331 332 330 336 342 347 350 349 348 348 349 349 350 350 348 346 346
315 315 315 314 312 311 312 312 313 312 312 312 313 315 315 316 316 317 317 318 318 319 320 321 322 323 322 322 324 326 327 327 327 328 330 331 337 341 346 351 351 351 351 350 350 349 346 346 347
314 315 314 314 312 312 312 312 312 313 312 314 314 315 315 316 317 317 317 317 318 319 319 319 320 322 323 325 328 329 330 330 330 330 332 332 335 339 344 348 351 351 351 350 348 346 346 347 349
314 313 314 313 314 312 312 313 314 313 313 313 314 314 315 316 316 316 317 318 318 318 318 318 319 320 321 324 326 327 331 333 333 334 334 335 336 340 340 346 349 350 349 347 347 346 348 350 349
313 313 312 313 314 317 315 314 315 313 314 314 314 315 316 316 316 317 317 317 317 317 317 317 317 317 319 321 323 325 328 331 334 336 335 336 339 340 340 344 348 348 347 347 348 348 350 350 350
313 313 313 322 316 315 317 316 314 315 314 314 315 315 316 316 317 316 316 316 316 317 316 315 316 316 316 318 321 323 326 327 330 336 336 335 337 339 340 343 346 345 344 347 349 350 349 349 349
Wind_Speed
11 6 5 6 6 6 12 5 2 6 6 2 5 8 8 12 9 3 4 5 10 26 30 37 37 34 32 32 32 32 31 30 27 25 23 21 20 19 17 15 15 13 12 11 10 10 9 8 7
7 5 4 2 7 10 11 3 10 3 4 7 7 8 10 11 8 12 14 6 16 24 29 33 39 37 34 33 33 33 31 29 27 25 24 22 21 19 18 16 15 14 13 13 12 11 11 10 10
4 3 4 4 11 13 11 4 7 5 5 3 4 5 5 2 13 13 9 4 18 26 28 32 41 39 36 34 33 33 33 31 28 26 25 24 22 20 19 17 16 15 14 13 12 11 10 10 10
4 5 4 9 14 13 9 4 3 5 5 2 5 7 3 4 19 20 21 11 22 26 28 31 41 40 38 35 33 33 33 31 29 28 27 25 23 21 20 18 16 15 14 13 12 11 9 8 8
5 4 9 10 14 4 9 10 10 11 10 8 5 6 2 13 21 18 12 14 25 28 29 29 43 40 39 37 35 34 33 31 30 29 28 26 24 22 20 18 16 14 14 13 11 10 9 9 9
7 5 11 13 15 9 7 7 10 9 9 7 8 8 1 16 24 20 10 12 22 27 28 29 42 40 39 37 35 34 34 33 32 29 28 26 24 22 20 18 17 15 14 12 11 10 9 9 8
13 11 17 18 16 11 10 7 13 10 9 7 5 10 4 17 21 17 7 8 19 23 24 27 32 38 38 37 35 34 33 33 32 30 28 25 22 20 19 18 17 15 14 13 12 10 10 10 9
11 13 22 19 17 20 12 10 11 11 5 6 4 3 10 15 16 12 6 7 16 21 22 24 28 30 29 30 35 34 33 32 31 29 27 24 22 20 19 18 17 14 14 14 12 12 11 11 11
13 14 19 24 21 16 9 12 7 10 11 10 6 8 10 17 16 15 5 6 15 19 21 23 26 27 27 27 26 34 33 32 31 28 26 23 16 15 16 16 15 15 14 15 14 12 12 13 13
14 16 27 22 20 18 14 17 10 7 12 13 11 4 12 19 17 13 11 4 16 18 21 22 24 26 26 26 25 26 24 25 23 21 19 20 17 15 16 14 17 16 15 15 15 15 14 14 12
16 23 21 21 15 17 18 20 17 14 14 14 13 13 16 16 14 12 8 11 10 19 20 21 22 23 26 26 25 23 25 24 24 23 22 19 17 15 15 13 11 13 14 12 14 14 14 14 13
16 16 18 21 16 15 18 17 21 17 16 6 12 14 17 15 13 12 6 5 5 9 21 21 21 22 24 24 25 23 26 24 24 24 22 20 19 16 15 14 11 12 13 13 14 13 14 14 15
16 19 10 14 18 20 18 20 18 17 13 8 14 13 14 16 14 14 5 4 5 2 10 21 23 24 23 23 23 23 25 25 23 21 23 22 20 17 16 14 12 12 10 11 10 12 13 13 14
4 12 14 16 16 18 19 21 18 19 10 9 11 13 15 12 9 9 6 0 5 5 2 7 20 25 26 27 25 23 23 23 22 21 21 21 19 17 15 13 11 11 10 11 9 10 12 15 15
11 13 15 16 18 21 18 22 25 17 9 18 17 13 13 11 10 5 3 1 4 3 0 6 12 19 24 25 24 25 22 23 22 22 19 18 19 17 14 12 11 10 10 11 12 11 12 13 16
11 11 15 14 11 17 14 19 3 2 12 16 17 16 16 11 8 4 1 4 5 8 7 9 5 10 18 22 23 25 24 23 23 21 23 28 21 20 16 14 13 12 11 13 13 12 10 12 15
10 13 8 7 4 4 11 14 20 3 6 5 5 10 11 10 8 3 3 4 6 6 4 5 8 9 12 12 14 19 21 22 25 22 29 31 23 22 21 18 17 18 12 15 15 10 9 11 15
6 9 7 11 7 9 13 13 12 11 10 10 11 13 10 11 8 3 6 6 8 11 10 8 4 7 12 10 7 11 17 21 25 27 26 23 23 26 24 20 20 20 16 15 11 14 10 13 14
8 9 11 8 6 10 13 16 16 16 16 16 14 13 13 11 8 4 9 9 8 7 10 14 12 12 7 18 6 6 19 16 22 26 28 28 27 26 28 23 25 26 29 22 25 31 15 15 13
10 13 12 8 8 9 15 19 20 20 18 19 18 17 15 11 7 6 6 8 9 10 7 7 11 15 15 10 15 12 15 15 20 24 31 32 29 30 29 30 29 31 26 18 17 11 14 13 15
12 12 12 11 13 16 19 20 21 7 10 9 11 10 7 6 4 1 5 7 9 10 12 9 8 8 7 10 9 18 20 24 25 23 27 30 31 33 36 34 29 30 28 18 19 15 17 18 18
14 6 8 10 12 12 8 10 12 10 12 9 11 9 8 5 2 1 2 5 9 11 11 12 9 7 7 5 10 15 18 20 31 30 25 25 28 31 32 32 31 25 25 21 16 16 21 20 21
13 1 9 12 15 18 19 11 14 4 9 9 6 3 5 1 5 3 4 7 8 9 13 12 13 12 8 7 10 14 21 27 28 27 23 21 23 27 28 34 30 27 26 19 20 20 23 22 24
1 9 12 17 13 15 19 14 10 9 7 10 11 3 3 2 3 1 5 8 9 10 10 12 15 13 12 11 11 13 18 22 24 20 23 22 21 23 28 32 30 29 28 23 23 24 21 24 26
11 12 10 10 11 11 6 6 14 4 5 3 6 4 3 5 6 5 7 8 9 11 12 13 14 18 18 16 15 15 17 19 23 23 23 23 24 24 26 32 30 28 25 21 22 21 21 25 27
11 9 10 17 12 10 12 7 2 5 3 4 2 3 3 3 4 7 9 9 10 11 13 14 18 19 18 17 20 20 18 19 21 23 23 25 26 27 22 25 28 27 23 23 21 21 23 25 26
11 11 8 12 16 14 16 14 7 13 9 8 5 5 7 6 10 12 11 11 10 11 11 14 18 19 19 20 21 22 21 21 23 26 26 26 28 26 23 25 26 25 24 25 25 23 26 25 23
13 12 8 10 11 18 14 13 8 12 7 7 5 5 7 12 14 13 12 12 12 13 14 15 16 18 21 21 21 23 24 23 24 26 29 27 27 28 25 28 28 26 26 26 26 24 25 22 19
8 13 12 14 13 12 12 6 10 2 3 5 5 9 14 15 14 13 13 15 17 17 17 17 19 20 19 22 23 23 25 25 27 28 30 29 27 25 29 29 28 27 28 27 27 25 23 20 19
13 18 15 12 15 11 13 16 6 6 6 3 11 14 12 13 12 13 14 17 18 17 18 20 21 23 24 19 22 25 24 26 28 31 32 30 29 28 29 30 27 28 28 26 27 27 21 21 21
Wind_Direction
342 322 302 245 247 237 251 179 14 136 168 98 309 258 271 311 294 338 76 174 166 165 167 171 174 179 181 180 179 178 178 178 176 176 175 173 171 168 167 167 163 161 158 156 154 156 153 153 143
330 310 245 264 265 246 235 154 221 178 357 302 270 259 251 271 340 315 292 159 170 170 168 170 176 181 184 183 182 181 181 181 180 180 180 177 174 171 170 171 168 165 164 163 163 163 157 153 150
310 300 277 254 235 259 276 65 263 133 323 288 291 336 329 10 350 308 359 266 180 172 174 175 177 182 186 186 186 185 184 184 183 183 183 180 178 175 174 175 175 172 168 169 166 166 166 157 152
263 200 209 250 236 226 276 288 348 240 305 200 327 288 285 38 342 319 292 251 187 178 176 183 178 183 189 189 188 189 188 188 186 185 184 182 182 179 178 179 180 176 175 174 172 173 171 164 161
236 255 255 245 251 254 242 268 289 274 277 268 321 331 271 5 353 341 312 211 191 182 177 182 181 185 190 193 194 192 191 191 188 186 186 186 186 184 182 184 186 185 181 180 180 180 183 182 179
239 272 244 244 239 193 254 245 267 270 266 266 272 315 122 8 6 354 333 204 194 182 178 181 184 187 191 196 199 198 196 193 191 189 191 191 191 189 188 189 191 194 193 185 187 192 197 203 199
241 239 252 256 256 240 240 245 244 263 282 246 339 304 336 5 6 4 349 193 188 183 183 183 184 189 192 197 201 200 201 199 195 195 194 198 198 198 199 197 200 203 199 198 196 203 210 215 217
246 249 254 251 249 247 228 236 258 247 252 336 290 327 332 350 355 359 8 191 187 188 190 189 186 188 191 197 203 205 204 204 203 201 202 201 204 206 209 209 212 210 211 213 212 212 219 227 226
234 242 244 242 242 249 206 231 216 267 262 269 294 300 339 334 336 343 29 201 193 196 195 193 191 191 192 195 204 207 210 209 210 208 207 208 206 214 219 216 224 224 224 228 230 226 226 230 233
219 234 244 251 252 263 251 230 227 250 261 264 277 259 317 328 324 334 342 207 201 200 200 197 196 193 194 196 199 204 210 212 211 212 212 209 212 214 214 217 226 227 226 237 240 239 235 236 240
226 245 255 251 259 255 261 243 238 240 243 260 305 311 317 315 322 320 341 345 227 205 209 206 199 199 198 198 200 203 207 212 213 212 211 212 216 219 220 214 224 224 234 233 249 248 240 240 242
244 251 260 268 244 242 250 263 269 229 243 301 290 300 305 307 311 316 333 319 322 213 213 212 208 204 203 202 202 202 204 209 213 215 213 209 211 216 218 217 218 218 224 225 235 245 247 247 250
243 254 243 256 255 256 263 255 257 257 255 271 275 292 291 298 294 289 292 293 282 171 221 217 212 210 208 208 206 207 207 211 214 214 214 211 214 216 215 217 213 226 231 237 242 258 260 260 259
314 260 253 248 251 252 252 260 256 258 257 274 231 283 288 296 295 291 282 329 247 290 196 241 223 217 210 210 209 211 213 216 216 219 219 217 219 218 214 214 217 230 238 247 241 255 262 256 251
268 261 245 240 245 251 252 259 251 256 251 249 227 248 285 274 279 290 302 5 20 351 295 278 233 225 219 219 221 218 219 218 219 224 219 218 218 219 212 215 215 229 240 245 242 236 252 264 267
249 244 254 232 240 245 240 257 141 166 244 240 268 249 254 263 263 253 334 24 27 42 29 280 255 225 219 222 219 228 230 228 230 220 218 223 214 212 211 214 216 217 220 233 237 233 231 252 260
208 264 216 208 222 278 225 255 228 194 248 253 266 210 230 237 239 235 278 1 359 15 1 62 264 245 224 215 232 237 237 235 237 236 242 239 216 213 209 211 217 221 225 226 232 242 233 247 259
254 240 214 259 180 256 258 250 248 234 244 255 259 257 218 245 233 260 312 327 346 357 0 6 24 228 234 183 198 240 239 243 242 234 232 233 224 211 208 214 222 221 225 219 256 238 238 243 257
283 269 264 264 269 266 262 262 264 258 257 246 238 241 251 242 261 306 315 317 329 356 343 356 337 330 307 241 218 246 255 240 248 244 231 224 217 216 209 210 218 216 221 206 224 243 217 235 246
256 261 259 265 275 280 284 276 278 268 257 249 242 227 227 229 219 300 320 322 334 335 348 334 340 341 336 310 242 247 265 272 263 253 236 223 218 214 215 216 213 214 222 213 214 210 226 227 229
252 265 280 283 307 281 270 280 256 247 247 221 243 233 190 210 255 339 327 332 335 338 337 340 341 320 309 301 283 256 266 264 266 242 239 226 218 211 214 214 211 215 218 215 222 215 222 226 228
272 258 273 271 276 282 331 291 283 277 242 246 193 202 172 184 209 274 320 333 333 334 331 327 327 321 295 260 253 244 242 237 236 243 237 231 219 215 215 211 212 220 218 211 214 218 221 220 229
277 274 264 279 276 283 270 259 270 205 191 174 171 147 175 251 143 110 4 347 333 327 323 324 321 321 297 270 252 248 241 243 244 245 244 231 226 222 217 214 216 215 220 220 215 213 216 220 229
310 247 247 253 265 262 253 248 254 197 220 172 185 344 256 218 196 322 322 317 321 321 326 327 323 312 303 283 272 255 252 258 260 252 247 241 232 227 219 215 219 219 224 220 218 214 211 220 224
230 250 274 269 224 255 85 246 253 174 175 264 287 275 326 273 250 298 308 313 310 316 325 326 324 311 307 292 284 283 273 263 260 256 249 247 243 229 220 210 214 219 225 221 213 215 216 221 220
231 269 279 285 276 273 155 250 170 209 168 298 251 171 233 275 333 323 321 314 307 314 319 321 320 319 312 298 294 292 283 276 270 259 249 249 243 240 236 216 213 215 215 215 212 213 217 219 216
250 232 301 288 271 264 261 245 221 211 222 184 179 232 273 289 314 316 309 302 302 302 307 311 315 316 312 303 299 295 287 279 272 264 257 248 245 241 231 222 214 212 207 205 202 208 213 208 207
248 286 241 216 265 259 249 240 236 168 176 181 243 291 307 296 293 299 299 295 291 292 298 302 305 309 309 301 299 299 294 284 275 268 260 249 243 233 228 220 212 205 198 197 194 208 207 198 195
199 225 224 269 267 256 272 268 88 147 243 250 266 300 307 305 303 299 297 290 291 294 297 300 301 303 299 300 297 296 295 290 283 272 262 250 239 231 219 214 204 196 193 196 197 202 195 190 193
262 272 250 243 246 237 262 270 298 247 255 272 280 303 300 306 301 304 303 297 289 291 300 303 302 301 298 292 285 293 290 294 286 277 267 253 239 229 219 214 200 195 193 193 197 196 187 192 197